Regional Weather Roundup
Issued by NWS

Home | Current Version | Previous Version | Graphics & Text | Print | Product List | Glossary On
Versions: 1 2 3 4 5 6 7 8 9 10 11 12 13 14 15 16 17 18 19 20 21 22 23 24 25 26 27 28 29 30 31 32 33 34 35 36 37 38 39 40 41 42 43 44 45 46 47 48 49 50
000
ASUS43 KLSX 270759
RWRMO

WEATHER SUMMARY FOR MISSOURI
NATIONAL WEATHER SERVICE SPRINGFIELD MO
200 AM CST TUE JAN 27 2015

NOTE: "FAIR" INDICATES FEW OR NO CLOUDS BELOW 12,000 FEET WITH NO
       SIGNIFICANT WEATHER AND/OR OBSTRUCTIONS TO VISIBILITY.
       CURRENT SKY AND/OR WEATHER CONDITIONS ARE NOT AVAILABLE FOR
       CHILLICOTHE AND FARMINGTON.

MOZ001>031-035>038-043-044-053-054-270900-
...NORTHERN AND WESTERN MISSOURI...

CITY           SKY/WX    TMP DP  RH WIND       PRES   REMARKS
KANSAS CTY INT CLEAR     39  31  72 N8        30.06R
KANSAS C DTWN  CLEAR     37  31  78 CALM      30.06R
LEE`S SUMMIT   CLEAR     43  32  65 N10       30.05R
ST JOSEPH      CLEAR     32  29  88 CALM      30.08R
CHILLICOTHE      N/A     38  32  79 NW3       30.05R
KIRKSVILLE     CLOUDY    38  34  85 N9        30.01R

$$
MOZ066>068-077>081-088>096-101>105-270900-
...SOUTHWEST MISSOURI...

CITY           SKY/WX    TMP DP  RH WIND       PRES   REMARKS
SPRINGFIELD    CLEAR     40  32  73 NW7       30.01R
JOPLIN         CLEAR     39  33  79 CALM      30.06R

$$
MOZ032>034-039>042-045>050-055>058-069>072-270900-
...CENTRAL MISSOURI...

CITY           SKY/WX    TMP DP  RH WIND       PRES   REMARKS
COLUMBIA       CLEAR     39  33  79 NW7       29.99R
JEFFERSON CITY CLEAR     35  32  88 CALM      30.00R
ROLLA          CLEAR     40  33  76 NW12      29.96R
SEDALIA        CLEAR     39  32  76 NW9       30.03R
OSAGE BEACH    CLEAR     45  32  61 NW6       30.01R

$$
MOZ051-052-059>065-270900-
...EAST CENTRAL MISSOURI...

CITY           SKY/WX    TMP DP  RH WIND       PRES   REMARKS
ST LOUIS INTL  PTCLDY    36  30  79 NW8       29.94R WCI  30
SPIRIT OF STL  CLEAR     37  32  82 NW6       29.95R
ST CHARLES     CLEAR     34  31  88 W7        29.95R WCI  28

$$
MOZ072>076-082>087-097>100-106>115-270900-
...SOUTH CENTRAL AND SOUTHEAST MISSOURI...

CITY           SKY/WX    TMP DP  RH WIND       PRES   REMARKS
CAPE GIRARDEAU CLEAR     29  29 100 W7        29.93R FOG     WCI  22
FARMINGTON     CLEAR     41  34  75 MISG      29.95R
POPLAR BLUFF   CLEAR     30  28  92 CALM      29.94R
WEST PLAINS    CLEAR     44  32  62 NW10      29.97R

$$



USA.gov is the U.S. government's official web portal to all federal, state and local government web resources and services.